sat.trackr.live / text

‹ back to catalog

STARLINK-32198

NORAD 60321 · 2024-133W

PAYLOAD ACTIVE UNKNOWN

§ Identity

Operator
Country
US
Launch date
2024-07-28
Launch site
AFWTR
Launch vehicle
Mass (kg)
RCS (m²)

Purposes: comms

External: N2YO · Heavens-Above · Gunter

§ Orbital elements

Epoch: 2026-09-21T18:56:24.215424Z

Period
93.85 min
Inclination
53.1593°
Eccentricity
0.0001080
Mean motion
15.34392514 rev/d
Perigee alt
462.0 km
Apogee alt
463.5 km
Semi-major
6,840.9 km
B*
-5.1755e-5
RAAN
103.3887°
Arg perigee
64.1897°
Mean anomaly
295.9217°
Rev number
12,179

§ Raw data

STARLINK-321981 60321U 24133W   26264.78916916 -.00002124  00000+0 -51755-4 0  99992 60321  53.1593 103.3887 0001080  64.1897 295.9217 15.34392514121796

JSON: /api/v1/satellites/60321 · /tle

For live sub-satellite position, see the globe view (requires WebGL).

§ Visibility from observer

Set your observer location to see the next 7 days of passes ≥ 10°. The values pass through the URL so the page stays shareable.

No JS? Fill the form by hand. The geolocation button needs JavaScript.